FW5284 Weather Reports


time (UTC)temp
C
wind
direction
speed
KPH
gust
KPH
rain 1hr
cm
rain 24hr
cm
rain mn
cm
humidity
%
barometer
mb
20260510231008 19 295 0.0 0.0 0.00 0.23 0.20 47 991.7
20260510230504 19 295 0.0 0.0 0.00 0.23 0.20 46 991.6
20260510230003 19 295 0.0 0.0 0.00 0.23 0.20 45 991.6
20260510225502 20 295 0.0 0.0 0.00 0.23 0.20 46 991.5
20260510225003 20 295 0.0 0.0 0.00 0.23 0.20 47 991.4
20260510224511 20 295 0.0 0.0 0.00 0.23 0.20 46 991.3
20260510224003 20 295 0.0 0.0 0.00 0.23 0.20 46 991.2
20260510223502 20 295 0.0 0.0 0.00 0.23 0.20 46 991.1
20260510223003 20 295 0.0 0.0 0.00 0.23 0.20 48 990.9
20260510222504 20 295 0.0 0.0 0.00 0.23 0.20 50 991.0
20260510222003 20 295 0.0 0.0 0.00 0.23 0.20 52 990.8
20260510221519 20 295 0.0 0.0 0.00 0.23 0.20 53 990.8
20260510221007 20 295 0.0 0.0 0.00 0.23 0.20 52 990.8
20260510220504 20 295 0.0 0.0 0.00 0.23 0.20 54 990.7
20260510220003 20 295 0.0 0.0 0.00 0.23 0.20 51 990.6
20260510215502 20 295 0.0 0.0 0.00 0.23 0.20 54 990.7
20260510215002 20 296 0.0 0.0 0.00 0.23 0.20 57 990.7
20260510214503 20 295 0.0 0.0 0.00 0.23 0.20 59 990.7
20260510214003 20 296 0.0 0.0 0.00 0.23 0.20 62 990.7
20260510213503 20 296 0.0 0.0 0.00 0.23 0.20 63 990.7
20260510213005 20 296 0.0 0.0 0.00 0.23 0.20 66 990.8
20260510212503 20 296 0.0 0.0 0.00 0.23 0.20 64 990.6
20260510212004 19 296 0.0 0.0 0.00 0.23 0.20 67 990.7
20260510211506 19 296 0.0 0.0 0.00 0.23 0.20 70 990.7
20260510211004 19 296 0.0 0.0 0.00 0.23 0.20 70 990.7
20260510210505 19 296 0.0 0.0 0.00 0.23 0.20 69 990.7
20260510210013 19 296 0.0 0.0 0.00 0.23 0.20 69 990.7
20260510205506 19 296 0.0 0.0 0.00 0.23 0.20 69 990.8
20260510205004 19 296 0.0 0.0 0.00 0.23 0.20 68 990.6
20260510204503 19 296 0.0 0.0 0.00 0.23 0.20 69 990.8
20260510204002 19 296 0.0 0.0 0.00 0.23 0.20 70 990.7
20260510203506 18 296 0.0 0.0 0.00 0.23 0.20 72 990.6
20260510203003 18 296 0.0 0.0 0.00 0.23 0.20 73 990.6
20260510202504 18 296 0.0 0.0 0.00 0.23 0.20 73 990.6
20260510202002 18 296 0.0 0.0 0.00 0.23 0.20 72 990.8
20260510201507 18 295 0.0 0.0 0.00 0.23 0.20 73 990.7
20260510201005 18 296 0.0 0.0 0.00 0.23 0.20 73 990.8
20260510200504 18 295 0.0 0.0 0.00 0.23 0.20 74 990.7
20260510200010 18 296 0.0 0.0 0.00 0.23 0.20 73 990.8
20260510195504 18 295 0.0 0.0 0.00 0.23 0.20 74 990.8
20260510195004 18 295 0.0 0.0 0.00 0.23 0.20 74 991.0
20260510194521 18 295 0.0 0.0 0.00 0.23 0.20 73 991.0
20260510194005 18 295 0.0 0.0 0.00 0.23 0.20 74 991.0
20260510193507 18 295 0.0 0.0 0.00 0.23 0.20 74 991.1
20260510193004 18 295 0.0 0.0 0.00 0.23 0.20 74 991.1
20260510192505 18 295 0.0 0.0 0.00 0.23 0.20 72 991.0
20260510192002 18 295 0.0 0.0 0.00 0.23 0.20 72 991.1
20260510191503 19 295 0.0 0.0 0.00 0.23 0.20 69 991.0
20260510191004 19 295 0.0 0.0 0.00 0.23 0.20 71 991.0
20260510190504 20 295 0.0 0.0 0.00 0.23 0.20 69 991.1
20260510190009 21 295 0.0 0.0 0.00 0.23 0.20 64 991.0
20260510185505 21 295 0.0 0.0 0.00 0.23 0.20 64 990.8
20260510185003 22 305 0.0 0.0 0.00 0.23 0.20 62 990.6
20260510184511 22 305 0.0 0.0 0.00 0.23 0.20 60 990.6
20260510184004 23 304 0.0 0.0 0.00 0.23 0.20 64 990.6
20260510183509 21 304 0.0 0.0 0.00 0.23 0.20 67 990.7
20260510183015 21 303 0.0 0.0 0.00 0.23 0.20 70 990.7
20260510182511 21 303 0.0 0.0 0.00 0.23 0.20 67 990.9
20260510182006 22 304 0.0 0.0 0.00 0.23 0.20 60 991.0
20260510181521 23 304 0.0 0.0 0.00 0.23 0.20 56 991.0
20260510181002 24 304 0.0 0.0 0.00 0.23 0.20 55 990.9
20260510180503 25 304 0.0 0.0 0.00 0.23 0.20 52 990.9
20260510180005 26 293 0.0 0.0 0.00 0.23 0.20 51 990.9
20260510175503 23 291 0.0 0.0 0.00 0.23 0.20 58 991.0
20260510175003 23 285 0.0 0.0 0.00 0.23 0.20 58 990.6
20260510174507 22 285 0.0 0.0 0.00 0.23 0.20 61 1001.2
20260510174005 23 288 0.0 0.0 0.00 0.23 0.20 58 997.3
20260510173503 23 288 0.0 0.0 0.00 0.23 0.20 58 999.8
20260510173016 23 288 0.0 0.0 0.00 0.23 0.20 56 995.8
20260510172504 23 288 0.0 0.0 0.00 0.23 0.20 56 1001.9
20260510172006 23 288 0.0 0.0 0.00 0.23 0.20 57 1000.9
20260510171520 23 286 0.0 0.0 0.00 0.23 0.20 56 1002.1
20260510171007 23 285 0.0 0.0 0.00 0.23 0.20 57 1006.6
20260510170514 22 285 0.0 0.0 0.00 0.23 0.20 60 1007.1
20260510170024 23 286 0.0 0.0 0.00 0.23 0.20 59 1006.4
20260510165505 23 287 0.0 0.0 0.00 0.23 0.20 58 1004.5
20260510165003 22 285 0.0 0.0 0.00 0.23 0.20 62 1003.3
20260510164511 22 285 0.0 0.0 0.00 0.23 0.20 61 1001.4
20260510164003 22 285 0.0 0.0 0.00 0.23 0.20 60 998.4
20260510163504 22 286 0.0 0.0 0.00 0.23 0.20 63 997.5
20260510163009 21 285 0.0 0.0 0.00 0.23 0.20 64 1001.7
20260510162504 21 287 0.0 0.0 0.00 0.23 0.20 64 990.1
20260510162006 21 287 0.0 0.0 0.00 0.23 0.20 65 997.0
20260510161516 20 285 0.0 0.0 0.00 0.23 0.20 66 992.7
20260510161007 20 285 0.0 0.0 0.00 0.23 0.20 66 987.0
20260510160507 21 286 0.0 0.0 0.00 0.23 0.20 64 985.3
20260510160022 21 290 0.0 0.0 0.00 0.23 0.20 64 986.0
20260510155506 19 285 0.0 0.0 0.00 0.23 0.20 68 988.2
20260510155006 20 285 0.0 0.0 0.00 0.23 0.20 64 982.8
20260510154529 21 288 0.0 0.0 0.00 0.23 0.20 63 989.9
20260510154004 21 288 0.0 0.0 0.00 0.23 0.20 63 998.4
20260510153504 21 288 0.0 0.0 0.00 0.23 0.20 64 1003.3
20260510153008 21 287 0.0 0.0 0.00 0.23 0.20 67 1003.1
20260510152504 20 288 0.0 0.0 0.00 0.23 0.20 68 1001.2
20260510152006 20 288 0.0 0.0 0.00 0.23 0.20 71 1001.6
20260510151511 20 290 0.0 0.0 0.00 0.23 0.20 68 970.0
20260510151005 20 288 0.0 0.0 0.00 0.23 0.20 60 959.8
20260510150510 20 286 0.0 0.0 0.00 0.23 0.20 66 955.9
20260510150017 20 287 0.0 0.0 0.00 0.23 0.20 63 965.6
20260510145507 19 288 0.0 0.0 0.00 0.23 0.20 68 973.7
20260510145009 19 286 0.0 0.0 0.00 0.23 0.20 68 977.7
20260510144529 20 288 0.0 0.0 0.00 0.23 0.20 67 980.8
20260510144011 20 286 0.0 0.0 0.00 0.23 0.20 67 986.2
20260510143511 20 289 0.0 0.0 0.00 0.23 0.20 69 998.0
20260510143034 18 288 0.0 0.0 0.00 0.23 0.20 74 1004.3
20260510142503 17 289 0.0 0.0 0.00 0.23 0.20 72 1004.7
20260510142003 17 287 0.0 0.0 0.00 0.23 0.20 74 1004.2
20260510141509 16 287 0.0 0.0 0.00 0.23 0.20 74 1000.7
20260510141005 16 288 0.0 0.0 0.00 0.23 0.20 76 998.6
20260510140505 15 287 0.0 0.0 0.00 0.23 0.20 79 994.3
20260510140015 15 287 0.0 0.0 0.00 0.23 0.20 79 1000.3
20260510135508 19 289 0.0 0.0 0.00 0.23 0.20 69 998.7
20260510135006 20 293 0.0 0.0 0.00 0.23 0.20 67 998.7
20260510134520 18 292 0.0 0.0 0.00 0.23 0.20 82 998.4
20260510134007 13 288 0.0 0.0 0.00 0.23 0.20 86 998.5
20260510133516 13 286 0.0 0.0 0.00 0.23 0.20 86 995.1
20260510133021 12 288 0.0 0.0 0.00 0.23 0.20 89 999.9
20260510132517 12 286 0.0 0.0 0.00 0.23 0.20 89 1000.5
20260510132016 11 286 0.0 0.0 0.00 0.23 0.20 88 1000.4
20260510131529 11 287 0.0 0.0 0.00 0.23 0.20 89 996.2
20260510131011 11 288 0.0 0.0 0.00 0.23 0.20 89 998.6
20260510130503 11 288 0.0 0.0 0.00 0.23 0.20 86 981.5
20260510130012 11 286 0.0 0.0 0.00 0.23 0.20 84 995.7
20260510125509 12 288 0.0 0.0 0.00 0.23 0.20 80 992.8
20260510125008 12 287 0.0 0.0 0.00 0.23 0.20 80 996.7
20260510124521 12 285 0.0 0.0 0.00 0.23 0.20 79 996.3
20260510124007 11 288 0.0 0.0 0.00 0.23 0.20 81 994.3
20260510123506 10 288 0.0 0.0 0.00 0.23 0.20 81 990.8
20260510123022 10 288 0.0 0.0 0.00 0.23 0.20 87 994.5
20260510122506 9 294 0.0 0.0 0.00 0.23 0.20 89 995.1
20260510122009 9 295 0.0 0.0 0.00 0.23 0.20 89 995.0
20260510121525 9 295 0.0 0.0 0.00 0.23 0.20 90 994.9
20260510121007 9 295 0.0 0.0 0.00 0.23 0.20 91 994.7
20260510120511 9 295 0.0 0.0 0.00 0.23 0.20 92 994.4
20260510120027 9 295 0.0 0.0 0.00 0.23 0.20 92 994.4
20260510115506 9 295 0.0 0.0 0.00 0.23 0.20 92 994.4
20260510115008 10 295 0.0 0.0 0.00 0.23 0.20 93 994.3
20260510114514 10 295 0.0 0.0 0.00 0.23 0.20 93 994.1
20260510114006 10 295 0.0 0.0 0.00 0.23 0.20 93 994.2
20260510113505 10 295 0.0 0.0 0.00 0.23 0.20 93 994.0
20260510113018 9 295 0.0 0.0 0.00 0.23 0.20 93 993.6
20260510112509 10 295 0.0 0.0 0.00 0.23 0.20 93 993.5
20260510112006 10 295 0.0 0.0 0.00 0.23 0.20 93 993.3
20260510111524 10 295 0.0 0.0 0.00 0.23 0.20 93 993.3
20260510111007 10 295 0.0 0.0 0.00 0.23 0.20 94 993.2
20260510110510 10 295 0.0 0.0 0.00 0.23 0.20 93 993.1
20260510110029 10 295 0.0 0.0 0.00 0.23 0.20 93 993.0
20260510105509 10 295 0.0 0.0 0.00 0.23 0.20 93 992.9
20260510105008 10 295 0.0 0.0 0.00 0.23 0.20 93 992.7
20260510104529 10 295 0.0 0.0 0.00 0.23 0.20 93 992.5
20260510104010 10 295 0.0 0.0 0.00 0.23 0.20 93 992.4
20260510103512 10 295 0.0 0.0 0.00 0.23 0.20 93 992.5
20260510103020 10 295 0.0 0.0 0.00 0.23 0.20 93 992.4
20260510102507 10 295 0.0 0.0 0.00 0.23 0.20 93 992.1
20260510102006 10 295 0.0 0.0 0.00 0.23 0.20 93 992.0
20260510101517 10 295 0.0 0.0 0.00 0.23 0.20 93 991.8
20260510101007 10 295 0.0 0.0 0.00 0.23 0.20 93 992.0
20260510100506 10 295 0.0 0.0 0.00 0.23 0.20 93 991.9
20260510100031 10 295 0.0 0.0 0.00 0.23 0.20 93 991.7
20260510095511 10 295 0.0 0.0 0.00 0.23 0.20 93 991.7
20260510095007 10 295 0.0 0.0 0.00 0.23 0.20 93 991.6
20260510094531 10 295 0.0 0.0 0.00 0.23 0.20 92 991.5
20260510094008 10 295 0.0 0.0 0.00 0.23 0.20 92 991.3
20260510093511 10 295 0.0 0.0 0.00 0.23 0.20 92 991.2
20260510093027 10 295 0.0 0.0 0.00 0.23 0.20 92 991.0
20260510092511 10 295 0.0 0.0 0.00 0.23 0.20 92 991.0
20260510092014 10 295 0.0 0.0 0.00 0.23 0.20 92 991.0
20260510091520 10 295 0.0 0.0 0.00 0.23 0.20 92 991.0
20260510091006 10 295 0.0 0.0 0.00 0.23 0.20 92 991.0
20260510090507 10 295 0.0 0.0 0.00 0.23 0.20 93 990.9
20260510090025 10 295 0.0 0.0 0.00 0.23 0.20 93 990.9
20260510085510 9 295 0.0 0.0 0.00 0.23 0.20 92 990.9
20260510085007 9 295 0.0 0.0 0.00 0.23 0.20 93 990.9
20260510084526 10 295 0.0 0.0 0.00 0.23 0.20 93 990.8
20260510084011 10 295 0.0 0.0 0.00 0.23 0.20 93 990.6
20260510083511 9 295 0.0 0.0 0.00 0.23 0.20 93 990.5
20260510083030 9 295 0.0 0.0 0.00 0.25 0.20 93 990.7
20260510082508 9 295 0.0 0.0 0.00 0.25 0.20 93 990.7
20260510082010 9 295 0.0 0.0 0.00 0.25 0.20 93 990.3
20260510081533 9 295 0.0 0.0 0.00 0.25 0.20 93 990.6
20260510081009 9 295 0.0 0.0 0.00 0.25 0.20 93 990.7
20260510080508 9 295 0.0 0.0 0.00 0.25 0.20 92 990.7
20260510080023 9 295 0.0 0.0 0.00 0.25 0.20 93 990.6
20260510075506 9 295 0.0 0.0 0.00 0.25 0.20 93 990.5
20260510075004 9 295 0.0 0.0 0.00 0.25 0.20 93 990.7
20260510074512 9 295 0.0 0.0 0.00 0.25 0.20 93 990.6
20260510074003 9 295 0.0 0.0 0.00 0.25 0.20 93 990.5
20260510073504 9 295 0.0 0.0 0.00 0.28 0.20 93 990.3
20260510073008 9 295 0.0 0.0 0.00 0.28 0.20 93 990.2
20260510072507 9 295 0.0 0.0 0.00 0.28 0.20 93 990.2
20260510072004 9 295 0.0 0.0 0.00 0.28 0.20 93 990.3
20260510071512 9 295 0.0 0.0 0.00 0.30 0.20 92 990.2
20260510071004 9 295 0.0 0.0 0.00 0.30 0.20 92 989.9
20260510070505 9 295 0.0 0.0 0.00 0.33 0.20 92 989.9
20260510070014 9 295 0.0 0.0 0.00 0.36 0.20 92 989.9
20260510065504 9 295 0.0 0.0 0.00 0.38 0.20 92 989.9
20260510065004 9 295 0.0 0.0 0.00 0.41 0.20 91 989.9
20260510064518 9 295 0.0 0.0 0.00 0.43 0.20 91 990.1
20260510064003 10 295 0.0 0.0 0.00 0.46 0.20 91 990.0
20260510063503 10 295 0.0 0.0 0.00 0.48 0.20 91 990.0
20260510063013 10 295 0.0 0.0 0.00 0.51 0.20 91 990.0
20260510062508 10 295 0.0 0.0 0.00 0.51 0.20 91 990.0
20260510062004 10 295 0.0 0.0 0.00 0.53 0.20 91 990.0
20260510061509 10 295 0.0 0.0 0.00 0.53 0.20 91 989.9
20260510061004 10 295 0.0 0.0 0.00 0.56 0.20 91 990.2
20260510060504 10 295 0.0 0.0 0.00 0.58 0.20 91 990.3
20260510060011 10 295 0.0 0.0 0.03 0.58 0.20 91 990.3
20260510055505 10 295 0.0 0.0 0.03 0.64 0.20 91 990.4
20260510055004 10 295 0.0 0.0 0.03 0.66 0.20 91 990.2
20260510054516 11 295 0.0 0.0 0.03 0.66 0.20 91 990.2
20260510054008 11 295 0.0 0.0 0.03 0.66 0.20 91 990.1
20260510053507 11 295 0.0 0.0 0.03 0.69 0.20 91 990.2
20260510053019 11 295 0.0 0.0 0.08 0.69 0.20 91 990.1
20260510052506 11 295 0.0 0.0 0.10 0.71 0.20 91 990.0
20260510052008 11 295 0.0 0.0 0.15 0.74 0.20 91 989.9
20260510051519 11 295 0.0 0.0 0.15 0.74 0.20 91 989.9
20260510051007 11 295 0.0 0.0 0.18 0.74 0.20 91 989.9
20260510050503 11 295 0.0 0.0 0.18 0.76 0.20 91 990.0
20260510050011 11 295 0.0 0.0 0.18 0.74 0.18 91 990.0
20260510045506 11 295 0.0 0.0 0.18 0.74 0.18 91 990.0
20260510045006 11 295 0.0 0.0 0.20 0.74 0.18 91 989.9
20260510044502 11 295 0.0 0.0 0.20 0.74 0.18 91 990.1
20260510044002 11 295 0.0 0.0 0.20 0.74 0.18 91 990.2
20260510043502 11 295 0.0 0.0 0.20 0.74 0.18 90 990.7
20260510043004 11 295 0.0 0.0 0.15 0.71 0.13 91 990.5
20260510042503 11 295 0.0 0.0 0.13 0.69 0.10 90 990.7
20260510042003 11 295 0.0 0.0 0.08 0.64 0.05 90 990.8
20260510041504 11 295 0.0 0.0 0.08 0.64 0.05 90 990.6
20260510041004 11 295 0.0 0.0 0.05 0.61 0.03 89 990.6
20260510040504 11 295 0.0 0.0 0.05 0.61 0.03 89 990.6
20260510040010 11 295 0.0 0.0 0.03 0.58 0.00 89 990.6
20260510035502 12 295 0.0 0.0 0.03 0.58 0.58 88 990.5
20260510035004 12 295 0.0 0.0 0.00 0.58 0.56 88 990.4
20260510034512 12 295 0.0 0.0 0.00 0.58 0.56 87 990.4
20260510034006 12 295 0.0 0.0 0.00 0.61 0.56 87 990.5
20260510033505 12 295 0.0 0.0 0.00 0.61 0.56 87 990.6
20260510033004 12 295 0.0 0.0 0.00 0.61 0.56 87 990.7
20260510032502 12 295 0.0 0.0 0.00 0.61 0.56 86 990.6
20260510032003 12 295 0.0 0.0 0.00 0.64 0.56 85 990.6
20260510031503 13 295 0.0 0.0 0.00 0.64 0.56 84 990.6
20260510031002 12 295 0.0 0.0 0.00 0.66 0.56 84 990.6
20260510030505 12 295 0.0 0.0 0.00 0.66 0.56 84 990.2
20260510030007 12 295 0.0 0.0 0.00 0.66 0.56 84 989.8
20260510025503 12 295 0.0 0.0 0.00 0.66 0.56 84 989.7
20260510025002 12 295 0.0 0.0 0.00 0.66 0.56 84 989.4
20260510024510 12 295 0.0 0.0 0.00 0.66 0.56 84 989.2
20260510024003 12 295 0.0 0.0 0.00 0.66 0.56 84 989.2
20260510023506 12 295 0.0 0.0 0.00 0.66 0.56 84 989.3
20260510023016 12 295 0.0 0.0 0.00 0.66 0.56 84 989.3
20260510022510 12 295 0.0 0.0 0.00 0.66 0.56 84 989.2
20260510022007 12 295 0.0 0.0 0.00 0.66 0.56 84 989.1
20260510021521 12 295 0.0 0.0 0.00 0.66 0.56 84 989.0
20260510021002 12 295 0.0 0.0 0.00 0.66 0.56 84 988.9
20260510020506 12 295 0.0 0.0 0.00 0.69 0.56 84 988.9
20260510020004 12 295 0.0 0.0 0.00 0.69 0.56 83 988.8
20260510015504 12 295 0.0 0.0 0.00 0.69 0.56 83 988.7
20260510015003 12 295 0.0 0.0 0.00 0.69 0.56 84 988.8
20260510014505 12 295 0.0 0.0 0.00 0.69 0.56 84 988.9
20260510014002 12 295 0.0 0.0 0.00 0.69 0.56 84 989.2
20260510013501 12 295 0.0 0.0 0.00 0.69 0.56 84 989.0
20260510013010 12 295 0.0 0.0 0.00 0.71 0.56 84 988.8
20260510012503 12 295 0.0 0.0 0.00 0.71 0.56 84 988.5
20260510012007 12 295 0.0 0.0 0.00 0.71 0.56 84 988.7
20260510011533 12 295 0.0 0.0 0.00 0.71 0.56 84 988.5
20260510011006 12 295 0.0 0.0 0.00 0.71 0.56 84 988.5
20260510010506 12 295 0.0 0.0 0.00 0.74 0.56 83 988.6
20260510010020 12 295 0.0 0.0 0.00 0.74 0.56 83 988.7
20260510005503 12 295 0.0 0.0 0.00 0.74 0.56 83 988.5
20260510005003 12 295 0.0 0.0 0.00 0.76 0.56 82 988.5
20260510004504 12 295 0.0 0.0 0.00 0.76 0.56 82 988.4
20260510004005 12 295 0.0 0.0 0.00 0.76 0.56 82 988.3
20260510003503 12 295 0.0 0.0 0.00 0.76 0.56 81 988.5
20260510003007 13 295 0.0 0.0 0.00 0.79 0.56 81 988.4
20260510002502 13 295 0.0 0.0 0.00 0.79 0.56 80 988.4
20260510002006 13 295 0.0 0.0 0.00 0.81 0.56 80 988.3
20260510001514 13 295 0.0 0.0 0.00 0.81 0.56 80 988.3
20260510001006 13 295 0.0 0.0 0.00 0.81 0.56 79 988.3
20260510000506 13 295 0.0 0.0 0.00 0.84 0.56 79 988.4
20260510000018 13 295 0.0 0.0 0.00 0.84 0.56 79 988.5
20260509235510 13 295 0.0 0.0 0.00 0.84 0.56 78 988.5
20260509235006 13 295 0.0 0.0 0.00 0.86 0.56 78 988.5
20260509234527 14 295 0.0 0.0 0.00 0.86 0.56 77 988.3
20260509234011 14 295 0.0 0.0 0.00 0.86 0.56 77 988.1
20260509233507 14 295 0.0 0.0 0.00 0.86 0.56 76 988.1
20260509233007 14 295 0.0 0.0 0.00 0.89 0.56 76 988.3
20260509232503 14 295 0.0 0.0 0.00 0.91 0.56 76 988.4
20260509232004 15 295 0.0 0.0 0.00 0.94 0.56 75 988.3
20260509231512 15 295 0.0 0.0 0.00 0.97 0.56 76 988.4